<?xml version="1.0" encoding="UTF-8" standalone="no" ?>
<gpx xmlns="http://www.topografix.com/GPX/1/1" xmlns:xsi="http://www.w3.org/2001/XMLSchema-instance" xsi:schemaLocation="http://www.topografix.com/GPX/1/1 http://www.topografix.com/GPX/1/1/gpx.xsd" version="1.1" creator="VisuGPX - https://www.visugpx.com">
  <metadata>
    <name>[object Object]</name>
    <desc><![CDATA[GRP Liaison Gèdre Luz st Sauveur]]></desc>
  </metadata>
  <trk>
    <name><![CDATA[[object Object]]]></name>
    <trkseg>
      <trkpt lat="42.78837" lon="0.01898">
        <ele>1024</ele>
        <time>2022-07-25T11:06:11Z</time>
      </trkpt>
      <trkpt lat="42.78859" lon="0.01826">
        <ele>1012</ele>
        <time>2022-07-25T11:06:11Z</time>
      </trkpt>
      <trkpt lat="42.78864" lon="0.01817">
        <ele>1011</ele>
        <time>2022-07-25T11:06:11Z</time>
      </trkpt>
      <trkpt lat="42.78867" lon="0.01815">
        <ele>1011</ele>
        <time>2022-07-25T11:06:11Z</time>
      </trkpt>
      <trkpt lat="42.78875" lon="0.0177">
        <ele>1004</ele>
        <time>2022-07-25T11:06:11Z</time>
      </trkpt>
      <trkpt lat="42.78879" lon="0.01761">
        <ele>1003</ele>
        <time>2022-07-25T11:06:11Z</time>
      </trkpt>
      <trkpt lat="42.78884" lon="0.01758">
        <ele>1002</ele>
        <time>2022-07-25T11:06:11Z</time>
      </trkpt>
      <trkpt lat="42.78894" lon="0.01757">
        <ele>1002</ele>
        <time>2022-07-25T11:06:11Z</time>
      </trkpt>
      <trkpt lat="42.78894" lon="0.01756">
        <ele>1002</ele>
        <time>2022-07-25T11:06:11Z</time>
      </trkpt>
      <trkpt lat="42.78912" lon="0.01748">
        <ele>1001</ele>
        <time>2022-07-25T11:06:11Z</time>
      </trkpt>
      <trkpt lat="42.78939" lon="0.01762">
        <ele>1005</ele>
        <time>2022-07-25T11:06:11Z</time>
      </trkpt>
      <trkpt lat="42.78969" lon="0.01765">
        <ele>1006</ele>
        <time>2022-07-25T11:06:11Z</time>
      </trkpt>
      <trkpt lat="42.78995" lon="0.01768">
        <ele>1007</ele>
        <time>2022-07-25T11:06:11Z</time>
      </trkpt>
      <trkpt lat="42.79025" lon="0.01773">
        <ele>1009</ele>
        <time>2022-07-25T11:06:11Z</time>
      </trkpt>
      <trkpt lat="42.79053" lon="0.01764">
        <ele>1005</ele>
        <time>2022-07-25T11:06:11Z</time>
      </trkpt>
      <trkpt lat="42.7908" lon="0.01752">
        <ele>1000</ele>
        <time>2022-07-25T11:06:11Z</time>
      </trkpt>
      <trkpt lat="42.79108" lon="0.01739">
        <ele>999</ele>
        <time>2022-07-25T11:06:11Z</time>
      </trkpt>
      <trkpt lat="42.79125" lon="0.01745">
        <ele>999</ele>
        <time>2022-07-25T11:06:11Z</time>
      </trkpt>
      <trkpt lat="42.79136" lon="0.01718">
        <ele>999</ele>
        <time>2022-07-25T11:06:11Z</time>
      </trkpt>
      <trkpt lat="42.79134" lon="0.01715">
        <ele>999</ele>
        <time>2022-07-25T11:06:11Z</time>
      </trkpt>
      <trkpt lat="42.79156" lon="0.01728">
        <ele>999</ele>
        <time>2022-07-25T11:06:11Z</time>
      </trkpt>
      <trkpt lat="42.79178" lon="0.01722">
        <ele>999</ele>
        <time>2022-07-25T11:06:11Z</time>
      </trkpt>
      <trkpt lat="42.79193" lon="0.01721">
        <ele>999</ele>
        <time>2022-07-25T11:06:11Z</time>
      </trkpt>
      <trkpt lat="42.79198" lon="0.01722">
        <ele>999</ele>
        <time>2022-07-25T11:06:11Z</time>
      </trkpt>
      <trkpt lat="42.79205" lon="0.0172">
        <ele>999</ele>
        <time>2022-07-25T11:06:11Z</time>
      </trkpt>
      <trkpt lat="42.79245" lon="0.01717">
        <ele>999</ele>
        <time>2022-07-25T11:06:11Z</time>
      </trkpt>
      <trkpt lat="42.79273" lon="0.01714">
        <ele>999</ele>
        <time>2022-07-25T11:06:11Z</time>
      </trkpt>
      <trkpt lat="42.79283" lon="0.01711">
        <ele>999</ele>
        <time>2022-07-25T11:06:11Z</time>
      </trkpt>
      <trkpt lat="42.79298" lon="0.01696">
        <ele>998</ele>
        <time>2022-07-25T11:06:11Z</time>
      </trkpt>
      <trkpt lat="42.79321" lon="0.01669">
        <ele>998</ele>
        <time>2022-07-25T11:06:11Z</time>
      </trkpt>
      <trkpt lat="42.79339" lon="0.01661">
        <ele>998</ele>
        <time>2022-07-25T11:06:11Z</time>
      </trkpt>
      <trkpt lat="42.7939" lon="0.01679">
        <ele>998</ele>
        <time>2022-07-25T11:06:11Z</time>
      </trkpt>
      <trkpt lat="42.79444" lon="0.01683">
        <ele>998</ele>
        <time>2022-07-25T11:06:11Z</time>
      </trkpt>
      <trkpt lat="42.79465" lon="0.01699">
        <ele>997</ele>
        <time>2022-07-25T11:06:11Z</time>
      </trkpt>
      <trkpt lat="42.79474" lon="0.01699">
        <ele>997</ele>
        <time>2022-07-25T11:06:11Z</time>
      </trkpt>
      <trkpt lat="42.79486" lon="0.01695">
        <ele>997</ele>
        <time>2022-07-25T11:06:11Z</time>
      </trkpt>
      <trkpt lat="42.79497" lon="0.01688">
        <ele>996</ele>
        <time>2022-07-25T11:06:11Z</time>
      </trkpt>
      <trkpt lat="42.79513" lon="0.01669">
        <ele>994</ele>
        <time>2022-07-25T11:06:11Z</time>
      </trkpt>
      <trkpt lat="42.79525" lon="0.01646">
        <ele>992</ele>
        <time>2022-07-25T11:06:11Z</time>
      </trkpt>
      <trkpt lat="42.79542" lon="0.01582">
        <ele>987</ele>
        <time>2022-07-25T11:06:11Z</time>
      </trkpt>
      <trkpt lat="42.79563" lon="0.01546">
        <ele>984</ele>
        <time>2022-07-25T11:06:11Z</time>
      </trkpt>
      <trkpt lat="42.7958" lon="0.015">
        <ele>982</ele>
        <time>2022-07-25T11:06:11Z</time>
      </trkpt>
      <trkpt lat="42.79597" lon="0.01466">
        <ele>981</ele>
        <time>2022-07-25T11:06:11Z</time>
      </trkpt>
      <trkpt lat="42.79614" lon="0.01447">
        <ele>981</ele>
        <time>2022-07-25T11:06:11Z</time>
      </trkpt>
      <trkpt lat="42.79635" lon="0.01433">
        <ele>980</ele>
        <time>2022-07-25T11:06:11Z</time>
      </trkpt>
      <trkpt lat="42.79661" lon="0.01369">
        <ele>984</ele>
        <time>2022-07-25T11:06:11Z</time>
      </trkpt>
      <trkpt lat="42.79688" lon="0.01322">
        <ele>985</ele>
        <time>2022-07-25T11:06:11Z</time>
      </trkpt>
      <trkpt lat="42.79721" lon="0.01297">
        <ele>992</ele>
        <time>2022-07-25T11:06:11Z</time>
      </trkpt>
      <trkpt lat="42.79771" lon="0.01277">
        <ele>994</ele>
        <time>2022-07-25T11:06:11Z</time>
      </trkpt>
      <trkpt lat="42.79807" lon="0.01268">
        <ele>992</ele>
        <time>2022-07-25T11:06:11Z</time>
      </trkpt>
      <trkpt lat="42.7982" lon="0.01267">
        <ele>991</ele>
        <time>2022-07-25T11:06:11Z</time>
      </trkpt>
      <trkpt lat="42.79829" lon="0.01254">
        <ele>992</ele>
        <time>2022-07-25T11:06:11Z</time>
      </trkpt>
      <trkpt lat="42.7984" lon="0.01243">
        <ele>993</ele>
        <time>2022-07-25T11:06:11Z</time>
      </trkpt>
      <trkpt lat="42.79879" lon="0.01224">
        <ele>994</ele>
        <time>2022-07-25T11:06:11Z</time>
      </trkpt>
      <trkpt lat="42.79889" lon="0.01209">
        <ele>996</ele>
        <time>2022-07-25T11:06:11Z</time>
      </trkpt>
      <trkpt lat="42.79945" lon="0.01207">
        <ele>989</ele>
        <time>2022-07-25T11:06:11Z</time>
      </trkpt>
      <trkpt lat="42.80001" lon="0.01205">
        <ele>984</ele>
        <time>2022-07-25T11:06:11Z</time>
      </trkpt>
      <trkpt lat="42.80064" lon="0.01206">
        <ele>982</ele>
        <time>2022-07-25T11:06:11Z</time>
      </trkpt>
      <trkpt lat="42.80126" lon="0.01208">
        <ele>981</ele>
        <time>2022-07-25T11:06:11Z</time>
      </trkpt>
      <trkpt lat="42.80154" lon="0.01204">
        <ele>982</ele>
        <time>2022-07-25T11:06:11Z</time>
      </trkpt>
      <trkpt lat="42.80155" lon="0.01216">
        <ele>981</ele>
        <time>2022-07-25T11:06:11Z</time>
      </trkpt>
      <trkpt lat="42.8019" lon="0.01227">
        <ele>981</ele>
        <time>2022-07-25T11:06:11Z</time>
      </trkpt>
      <trkpt lat="42.80209" lon="0.01227">
        <ele>981</ele>
        <time>2022-07-25T11:06:11Z</time>
      </trkpt>
      <trkpt lat="42.80222" lon="0.01229">
        <ele>981</ele>
        <time>2022-07-25T11:06:11Z</time>
      </trkpt>
      <trkpt lat="42.80237" lon="0.01241">
        <ele>980</ele>
        <time>2022-07-25T11:06:11Z</time>
      </trkpt>
      <trkpt lat="42.80285" lon="0.01249">
        <ele>980</ele>
        <time>2022-07-25T11:06:11Z</time>
      </trkpt>
      <trkpt lat="42.80318" lon="0.0126">
        <ele>981</ele>
        <time>2022-07-25T11:06:11Z</time>
      </trkpt>
      <trkpt lat="42.80347" lon="0.01263">
        <ele>981</ele>
        <time>2022-07-25T11:06:11Z</time>
      </trkpt>
      <trkpt lat="42.80379" lon="0.01246">
        <ele>981</ele>
        <time>2022-07-25T11:06:11Z</time>
      </trkpt>
      <trkpt lat="42.80393" lon="0.01236">
        <ele>981</ele>
        <time>2022-07-25T11:06:11Z</time>
      </trkpt>
      <trkpt lat="42.80427" lon="0.01207">
        <ele>981</ele>
        <time>2022-07-25T11:06:11Z</time>
      </trkpt>
      <trkpt lat="42.80456" lon="0.01163">
        <ele>980</ele>
        <time>2022-07-25T11:06:11Z</time>
      </trkpt>
      <trkpt lat="42.80519" lon="0.01086">
        <ele>979</ele>
        <time>2022-07-25T11:06:11Z</time>
      </trkpt>
      <trkpt lat="42.8055" lon="0.01055">
        <ele>979</ele>
        <time>2022-07-25T11:06:11Z</time>
      </trkpt>
      <trkpt lat="42.80574" lon="0.01035">
        <ele>977</ele>
        <time>2022-07-25T11:06:11Z</time>
      </trkpt>
      <trkpt lat="42.80585" lon="0.0102">
        <ele>975</ele>
        <time>2022-07-25T11:06:11Z</time>
      </trkpt>
      <trkpt lat="42.8059" lon="0.00997">
        <ele>974</ele>
        <time>2022-07-25T11:06:11Z</time>
      </trkpt>
      <trkpt lat="42.80588" lon="0.00981">
        <ele>974</ele>
        <time>2022-07-25T11:06:11Z</time>
      </trkpt>
      <trkpt lat="42.80572" lon="0.00961">
        <ele>978</ele>
        <time>2022-07-25T11:06:11Z</time>
      </trkpt>
      <trkpt lat="42.80499" lon="0.00929">
        <ele>1002</ele>
        <time>2022-07-25T11:06:11Z</time>
      </trkpt>
      <trkpt lat="42.80491" lon="0.00922">
        <ele>1005</ele>
        <time>2022-07-25T11:06:11Z</time>
      </trkpt>
      <trkpt lat="42.80483" lon="0.00912">
        <ele>1008</ele>
        <time>2022-07-25T11:06:11Z</time>
      </trkpt>
      <trkpt lat="42.80478" lon="0.00893">
        <ele>1009</ele>
        <time>2022-07-25T11:06:11Z</time>
      </trkpt>
      <trkpt lat="42.80482" lon="0.00859">
        <ele>1006</ele>
        <time>2022-07-25T11:06:11Z</time>
      </trkpt>
      <trkpt lat="42.80528" lon="0.00789">
        <ele>995</ele>
        <time>2022-07-25T11:06:11Z</time>
      </trkpt>
      <trkpt lat="42.80531" lon="0.0077">
        <ele>996</ele>
        <time>2022-07-25T11:06:11Z</time>
      </trkpt>
      <trkpt lat="42.80522" lon="0.0074">
        <ele>1000</ele>
        <time>2022-07-25T11:06:11Z</time>
      </trkpt>
      <trkpt lat="42.80523" lon="0.00718">
        <ele>1003</ele>
        <time>2022-07-25T11:06:11Z</time>
      </trkpt>
      <trkpt lat="42.80533" lon="0.00694">
        <ele>1004</ele>
        <time>2022-07-25T11:06:11Z</time>
      </trkpt>
      <trkpt lat="42.80534" lon="0.00678">
        <ele>1005</ele>
        <time>2022-07-25T11:06:11Z</time>
      </trkpt>
      <trkpt lat="42.80529" lon="0.00652">
        <ele>1010</ele>
        <time>2022-07-25T11:06:11Z</time>
      </trkpt>
      <trkpt lat="42.80555" lon="0.00616">
        <ele>1007</ele>
        <time>2022-07-25T11:06:11Z</time>
      </trkpt>
      <trkpt lat="42.80556" lon="0.00598">
        <ele>1009</ele>
        <time>2022-07-25T11:06:11Z</time>
      </trkpt>
      <trkpt lat="42.80599" lon="0.00512">
        <ele>1004</ele>
        <time>2022-07-25T11:06:11Z</time>
      </trkpt>
      <trkpt lat="42.8061" lon="0.00499">
        <ele>1004</ele>
        <time>2022-07-25T11:06:11Z</time>
      </trkpt>
      <trkpt lat="42.80618" lon="0.00496">
        <ele>1004</ele>
        <time>2022-07-25T11:06:11Z</time>
      </trkpt>
      <trkpt lat="42.80622" lon="0.00497">
        <ele>1003</ele>
        <time>2022-07-25T11:06:11Z</time>
      </trkpt>
      <trkpt lat="42.80623" lon="0.00487">
        <ele>1005</ele>
        <time>2022-07-25T11:06:11Z</time>
      </trkpt>
      <trkpt lat="42.80626" lon="0.00479">
        <ele>1006</ele>
        <time>2022-07-25T11:06:11Z</time>
      </trkpt>
      <trkpt lat="42.80632" lon="0.00474">
        <ele>1007</ele>
        <time>2022-07-25T11:06:11Z</time>
      </trkpt>
      <trkpt lat="42.80646" lon="0.0047">
        <ele>1007</ele>
        <time>2022-07-25T11:06:11Z</time>
      </trkpt>
      <trkpt lat="42.80647" lon="0.00441">
        <ele>1013</ele>
        <time>2022-07-25T11:06:11Z</time>
      </trkpt>
      <trkpt lat="42.80653" lon="0.00423">
        <ele>1017</ele>
        <time>2022-07-25T11:06:11Z</time>
      </trkpt>
      <trkpt lat="42.80652" lon="0.00414">
        <ele>1020</ele>
        <time>2022-07-25T11:06:11Z</time>
      </trkpt>
      <trkpt lat="42.80643" lon="0.00392">
        <ele>1027</ele>
        <time>2022-07-25T11:06:11Z</time>
      </trkpt>
      <trkpt lat="42.8063" lon="0.00367">
        <ele>1034</ele>
        <time>2022-07-25T11:06:11Z</time>
      </trkpt>
      <trkpt lat="42.80612" lon="0.00321">
        <ele>1044</ele>
        <time>2022-07-25T11:06:11Z</time>
      </trkpt>
      <trkpt lat="42.80594" lon="0.00283">
        <ele>1055</ele>
        <time>2022-07-25T11:06:11Z</time>
      </trkpt>
      <trkpt lat="42.80597" lon="0.00274">
        <ele>1059</ele>
        <time>2022-07-25T11:06:11Z</time>
      </trkpt>
      <trkpt lat="42.80602" lon="0.00274">
        <ele>1059</ele>
        <time>2022-07-25T11:06:11Z</time>
      </trkpt>
      <trkpt lat="42.80612" lon="0.0028">
        <ele>1060</ele>
        <time>2022-07-25T11:06:11Z</time>
      </trkpt>
      <trkpt lat="42.80682" lon="0.00298">
        <ele>1074</ele>
        <time>2022-07-25T11:06:11Z</time>
      </trkpt>
      <trkpt lat="42.80731" lon="0.00297">
        <ele>1082</ele>
        <time>2022-07-25T11:06:11Z</time>
      </trkpt>
      <trkpt lat="42.80771" lon="0.00306">
        <ele>1083</ele>
        <time>2022-07-25T11:06:11Z</time>
      </trkpt>
      <trkpt lat="42.80808" lon="0.00282">
        <ele>1093</ele>
        <time>2022-07-25T11:06:11Z</time>
      </trkpt>
      <trkpt lat="42.80865" lon="0.0024">
        <ele>1110</ele>
        <time>2022-07-25T11:06:11Z</time>
      </trkpt>
      <trkpt lat="42.80889" lon="0.00243">
        <ele>1105</ele>
        <time>2022-07-25T11:06:11Z</time>
      </trkpt>
      <trkpt lat="42.80927" lon="0.00231">
        <ele>1105</ele>
        <time>2022-07-25T11:06:11Z</time>
      </trkpt>
      <trkpt lat="42.80938" lon="0.00219">
        <ele>1107</ele>
        <time>2022-07-25T11:06:11Z</time>
      </trkpt>
      <trkpt lat="42.80959" lon="0.00189">
        <ele>1111</ele>
        <time>2022-07-25T11:06:11Z</time>
      </trkpt>
      <trkpt lat="42.81001" lon="0.0011">
        <ele>1126</ele>
        <time>2022-07-25T11:06:11Z</time>
      </trkpt>
      <trkpt lat="42.80999" lon="0.00102">
        <ele>1130</ele>
        <time>2022-07-25T11:06:11Z</time>
      </trkpt>
      <trkpt lat="42.80993" lon="0.00094">
        <ele>1135</ele>
        <time>2022-07-25T11:06:11Z</time>
      </trkpt>
      <trkpt lat="42.8099" lon="0.00086">
        <ele>1139</ele>
        <time>2022-07-25T11:06:11Z</time>
      </trkpt>
      <trkpt lat="42.81023" lon="-0.00025">
        <ele>1142</ele>
        <time>2022-07-25T11:06:11Z</time>
      </trkpt>
      <trkpt lat="42.81044" lon="-0.00044">
        <ele>1146</ele>
        <time>2022-07-25T11:06:11Z</time>
      </trkpt>
      <trkpt lat="42.81078" lon="-0.00079">
        <ele>1149</ele>
        <time>2022-07-25T11:06:11Z</time>
      </trkpt>
      <trkpt lat="42.81089" lon="-0.00084">
        <ele>1154</ele>
        <time>2022-07-25T11:06:11Z</time>
      </trkpt>
      <trkpt lat="42.8111" lon="-0.00097">
        <ele>1157</ele>
        <time>2022-07-25T11:06:11Z</time>
      </trkpt>
      <trkpt lat="42.81131" lon="-0.00115">
        <ele>1164</ele>
        <time>2022-07-25T11:06:11Z</time>
      </trkpt>
      <trkpt lat="42.81167" lon="-0.00124">
        <ele>1166</ele>
        <time>2022-07-25T11:06:11Z</time>
      </trkpt>
      <trkpt lat="42.81202" lon="-0.00141">
        <ele>1175</ele>
        <time>2022-07-25T11:06:11Z</time>
      </trkpt>
      <trkpt lat="42.81238" lon="-0.00148">
        <ele>1181</ele>
        <time>2022-07-25T11:06:11Z</time>
      </trkpt>
      <trkpt lat="42.81274" lon="-0.00169">
        <ele>1194</ele>
        <time>2022-07-25T11:06:11Z</time>
      </trkpt>
      <trkpt lat="42.81309" lon="-0.00184">
        <ele>1202</ele>
        <time>2022-07-25T11:06:11Z</time>
      </trkpt>
      <trkpt lat="42.81333" lon="-0.00187">
        <ele>1204</ele>
        <time>2022-07-25T11:06:11Z</time>
      </trkpt>
      <trkpt lat="42.81347" lon="-0.00208">
        <ele>1215</ele>
        <time>2022-07-25T11:06:11Z</time>
      </trkpt>
      <trkpt lat="42.81359" lon="-0.00211">
        <ele>1217</ele>
        <time>2022-07-25T11:06:11Z</time>
      </trkpt>
      <trkpt lat="42.81379" lon="-0.00201">
        <ele>1213</ele>
        <time>2022-07-25T11:06:11Z</time>
      </trkpt>
      <trkpt lat="42.81394" lon="-0.00193">
        <ele>1209</ele>
        <time>2022-07-25T11:06:11Z</time>
      </trkpt>
      <trkpt lat="42.81405" lon="-0.00191">
        <ele>1209</ele>
        <time>2022-07-25T11:06:11Z</time>
      </trkpt>
      <trkpt lat="42.81412" lon="-0.00193">
        <ele>1210</ele>
        <time>2022-07-25T11:06:11Z</time>
      </trkpt>
      <trkpt lat="42.81417" lon="-0.00192">
        <ele>1210</ele>
        <time>2022-07-25T11:06:11Z</time>
      </trkpt>
      <trkpt lat="42.81415" lon="-0.00165">
        <ele>1197</ele>
        <time>2022-07-25T11:06:11Z</time>
      </trkpt>
      <trkpt lat="42.81426" lon="-0.00148">
        <ele>1192</ele>
        <time>2022-07-25T11:06:11Z</time>
      </trkpt>
      <trkpt lat="42.81438" lon="-0.00141">
        <ele>1191</ele>
        <time>2022-07-25T11:06:11Z</time>
      </trkpt>
      <trkpt lat="42.81466" lon="-0.00158">
        <ele>1203</ele>
        <time>2022-07-25T11:06:11Z</time>
      </trkpt>
      <trkpt lat="42.81476" lon="-0.00157">
        <ele>1204</ele>
        <time>2022-07-25T11:06:11Z</time>
      </trkpt>
      <trkpt lat="42.81519" lon="-0.00116">
        <ele>1206</ele>
        <time>2022-07-25T11:06:11Z</time>
      </trkpt>
      <trkpt lat="42.81544" lon="-0.001">
        <ele>1208</ele>
        <time>2022-07-25T11:06:11Z</time>
      </trkpt>
      <trkpt lat="42.81565" lon="-0.00096">
        <ele>1211</ele>
        <time>2022-07-25T11:06:11Z</time>
      </trkpt>
      <trkpt lat="42.81586" lon="-0.00099">
        <ele>1216</ele>
        <time>2022-07-25T11:06:11Z</time>
      </trkpt>
      <trkpt lat="42.81614" lon="-0.00116">
        <ele>1225</ele>
        <time>2022-07-25T11:06:11Z</time>
      </trkpt>
      <trkpt lat="42.81641" lon="-0.00123">
        <ele>1232</ele>
        <time>2022-07-25T11:06:11Z</time>
      </trkpt>
      <trkpt lat="42.81658" lon="-0.00101">
        <ele>1228</ele>
        <time>2022-07-25T11:06:11Z</time>
      </trkpt>
      <trkpt lat="42.81677" lon="-0.00084">
        <ele>1225</ele>
        <time>2022-07-25T11:06:11Z</time>
      </trkpt>
      <trkpt lat="42.8172" lon="-0.00087">
        <ele>1236</ele>
        <time>2022-07-25T11:06:11Z</time>
      </trkpt>
      <trkpt lat="42.81744" lon="-0.00099">
        <ele>1248</ele>
        <time>2022-07-25T11:06:11Z</time>
      </trkpt>
      <trkpt lat="42.81758" lon="-0.00096">
        <ele>1250</ele>
        <time>2022-07-25T11:06:11Z</time>
      </trkpt>
      <trkpt lat="42.81767" lon="-0.0008">
        <ele>1237</ele>
        <time>2022-07-25T11:06:11Z</time>
      </trkpt>
      <trkpt lat="42.81779" lon="-0.00072">
        <ele>1217</ele>
        <time>2022-07-25T11:06:11Z</time>
      </trkpt>
      <trkpt lat="42.81795" lon="-0.00071">
        <ele>1221</ele>
        <time>2022-07-25T11:06:11Z</time>
      </trkpt>
      <trkpt lat="42.81808" lon="-0.00053">
        <ele>1237</ele>
        <time>2022-07-25T11:06:11Z</time>
      </trkpt>
      <trkpt lat="42.81816" lon="-0.00025">
        <ele>1253</ele>
        <time>2022-07-25T11:06:11Z</time>
      </trkpt>
      <trkpt lat="42.81825" lon="-0.00014">
        <ele>1269</ele>
        <time>2022-07-25T11:06:11Z</time>
      </trkpt>
      <trkpt lat="42.81841" lon="-4.0E-5">
        <ele>1285</ele>
        <time>2022-07-25T11:06:11Z</time>
      </trkpt>
      <trkpt lat="42.81858" lon="-4.0E-5">
        <ele>1300</ele>
        <time>2022-07-25T11:06:11Z</time>
      </trkpt>
      <trkpt lat="42.81893" lon="-0.00025">
        <ele>1316</ele>
        <time>2022-07-25T11:06:11Z</time>
      </trkpt>
      <trkpt lat="42.81935" lon="-0.00025">
        <ele>1332</ele>
        <time>2022-07-25T11:06:11Z</time>
      </trkpt>
      <trkpt lat="42.81971" lon="-8.0E-5">
        <ele>1348</ele>
        <time>2022-07-25T11:06:11Z</time>
      </trkpt>
      <trkpt lat="42.82029" lon="1.0E-5">
        <ele>1364</ele>
        <time>2022-07-25T11:06:11Z</time>
      </trkpt>
      <trkpt lat="42.82049" lon="7.0E-5">
        <ele>1371</ele>
        <time>2022-07-25T11:06:11Z</time>
      </trkpt>
      <trkpt lat="42.82079" lon="0.00023">
        <ele>1379</ele>
        <time>2022-07-25T11:06:11Z</time>
      </trkpt>
      <trkpt lat="42.821" lon="0.0004">
        <ele>1383</ele>
        <time>2022-07-25T11:06:11Z</time>
      </trkpt>
      <trkpt lat="42.82105" lon="0.00042">
        <ele>1383</ele>
        <time>2022-07-25T11:06:11Z</time>
      </trkpt>
      <trkpt lat="42.82116" lon="0.00041">
        <ele>1386</ele>
        <time>2022-07-25T11:06:11Z</time>
      </trkpt>
      <trkpt lat="42.82157" lon="0.00022">
        <ele>1403</ele>
        <time>2022-07-25T11:06:11Z</time>
      </trkpt>
      <trkpt lat="42.82163" lon="0.00024">
        <ele>1403</ele>
        <time>2022-07-25T11:06:11Z</time>
      </trkpt>
      <trkpt lat="42.82176" lon="0.00036">
        <ele>1403</ele>
        <time>2022-07-25T11:06:11Z</time>
      </trkpt>
      <trkpt lat="42.82185" lon="0.00049">
        <ele>1400</ele>
        <time>2022-07-25T11:06:11Z</time>
      </trkpt>
      <trkpt lat="42.82186" lon="0.00065">
        <ele>1396</ele>
        <time>2022-07-25T11:06:11Z</time>
      </trkpt>
      <trkpt lat="42.82175" lon="0.00092">
        <ele>1385</ele>
        <time>2022-07-25T11:06:11Z</time>
      </trkpt>
      <trkpt lat="42.82176" lon="0.0009">
        <ele>1386</ele>
        <time>2022-07-25T11:06:11Z</time>
      </trkpt>
      <trkpt lat="42.82164" lon="0.00121">
        <ele>1365</ele>
        <time>2022-07-25T11:06:11Z</time>
      </trkpt>
      <trkpt lat="42.82163" lon="0.00131">
        <ele>1359</ele>
        <time>2022-07-25T11:06:11Z</time>
      </trkpt>
      <trkpt lat="42.82166" lon="0.00145">
        <ele>1352</ele>
        <time>2022-07-25T11:06:11Z</time>
      </trkpt>
      <trkpt lat="42.82179" lon="0.00159">
        <ele>1349</ele>
        <time>2022-07-25T11:06:11Z</time>
      </trkpt>
      <trkpt lat="42.82196" lon="0.00169">
        <ele>1343</ele>
        <time>2022-07-25T11:06:11Z</time>
      </trkpt>
      <trkpt lat="42.82222" lon="0.00208">
        <ele>1318</ele>
        <time>2022-07-25T11:06:11Z</time>
      </trkpt>
      <trkpt lat="42.82228" lon="0.00214">
        <ele>1315</ele>
        <time>2022-07-25T11:06:11Z</time>
      </trkpt>
      <trkpt lat="42.82246" lon="0.00216">
        <ele>1312</ele>
        <time>2022-07-25T11:06:11Z</time>
      </trkpt>
      <trkpt lat="42.82268" lon="0.00215">
        <ele>1310</ele>
        <time>2022-07-25T11:06:11Z</time>
      </trkpt>
      <trkpt lat="42.82277" lon="0.00222">
        <ele>1304</ele>
        <time>2022-07-25T11:06:11Z</time>
      </trkpt>
      <trkpt lat="42.82282" lon="0.00239">
        <ele>1295</ele>
        <time>2022-07-25T11:06:11Z</time>
      </trkpt>
      <trkpt lat="42.82304" lon="0.00243">
        <ele>1289</ele>
        <time>2022-07-25T11:06:11Z</time>
      </trkpt>
      <trkpt lat="42.82338" lon="0.00239">
        <ele>1283</ele>
        <time>2022-07-25T11:06:11Z</time>
      </trkpt>
      <trkpt lat="42.82406" lon="0.00207">
        <ele>1273</ele>
        <time>2022-07-25T11:06:11Z</time>
      </trkpt>
      <trkpt lat="42.82421" lon="0.00209">
        <ele>1268</ele>
        <time>2022-07-25T11:06:11Z</time>
      </trkpt>
      <trkpt lat="42.82426" lon="0.00214">
        <ele>1264</ele>
        <time>2022-07-25T11:06:11Z</time>
      </trkpt>
      <trkpt lat="42.82431" lon="0.00215">
        <ele>1263</ele>
        <time>2022-07-25T11:06:11Z</time>
      </trkpt>
      <trkpt lat="42.82434" lon="0.00208">
        <ele>1264</ele>
        <time>2022-07-25T11:06:11Z</time>
      </trkpt>
      <trkpt lat="42.82434" lon="0.00197">
        <ele>1267</ele>
        <time>2022-07-25T11:06:11Z</time>
      </trkpt>
      <trkpt lat="42.82446" lon="0.0018">
        <ele>1268</ele>
        <time>2022-07-25T11:06:11Z</time>
      </trkpt>
      <trkpt lat="42.82489" lon="0.00139">
        <ele>1263</ele>
        <time>2022-07-25T11:06:11Z</time>
      </trkpt>
      <trkpt lat="42.82505" lon="0.00135">
        <ele>1257</ele>
        <time>2022-07-25T11:06:11Z</time>
      </trkpt>
      <trkpt lat="42.8253" lon="0.00124">
        <ele>1247</ele>
        <time>2022-07-25T11:06:11Z</time>
      </trkpt>
      <trkpt lat="42.82537" lon="0.00111">
        <ele>1245</ele>
        <time>2022-07-25T11:06:11Z</time>
      </trkpt>
      <trkpt lat="42.82547" lon="0.00106">
        <ele>1241</ele>
        <time>2022-07-25T11:06:11Z</time>
      </trkpt>
      <trkpt lat="42.8258" lon="0.00077">
        <ele>1228</ele>
        <time>2022-07-25T11:06:11Z</time>
      </trkpt>
      <trkpt lat="42.82641" lon="0.00035">
        <ele>1200</ele>
        <time>2022-07-25T11:06:11Z</time>
      </trkpt>
      <trkpt lat="42.82701" lon="-8.0E-5">
        <ele>1183</ele>
        <time>2022-07-25T11:06:11Z</time>
      </trkpt>
      <trkpt lat="42.82714" lon="-0.00025">
        <ele>1166</ele>
        <time>2022-07-25T11:06:11Z</time>
      </trkpt>
      <trkpt lat="42.82751" lon="-0.0005">
        <ele>1149</ele>
        <time>2022-07-25T11:06:11Z</time>
      </trkpt>
      <trkpt lat="42.82777" lon="-0.00088">
        <ele>1132</ele>
        <time>2022-07-25T11:06:11Z</time>
      </trkpt>
      <trkpt lat="42.82822" lon="-0.00123">
        <ele>1116</ele>
        <time>2022-07-25T11:06:11Z</time>
      </trkpt>
      <trkpt lat="42.82855" lon="-0.00135">
        <ele>1102</ele>
        <time>2022-07-25T11:06:11Z</time>
      </trkpt>
      <trkpt lat="42.82883" lon="-0.00141">
        <ele>1089</ele>
        <time>2022-07-25T11:06:11Z</time>
      </trkpt>
      <trkpt lat="42.82909" lon="-0.00158">
        <ele>1081</ele>
        <time>2022-07-25T11:06:11Z</time>
      </trkpt>
      <trkpt lat="42.82953" lon="-0.00197">
        <ele>1070</ele>
        <time>2022-07-25T11:06:11Z</time>
      </trkpt>
      <trkpt lat="42.82989" lon="-0.00225">
        <ele>1061</ele>
        <time>2022-07-25T11:06:11Z</time>
      </trkpt>
      <trkpt lat="42.83009" lon="-0.00227">
        <ele>1052</ele>
        <time>2022-07-25T11:06:11Z</time>
      </trkpt>
      <trkpt lat="42.83025" lon="-0.00232">
        <ele>1045</ele>
        <time>2022-07-25T11:06:11Z</time>
      </trkpt>
      <trkpt lat="42.83076" lon="-0.0028">
        <ele>1031</ele>
        <time>2022-07-25T11:06:11Z</time>
      </trkpt>
      <trkpt lat="42.83093" lon="-0.00306">
        <ele>1029</ele>
        <time>2022-07-25T11:06:11Z</time>
      </trkpt>
      <trkpt lat="42.83095" lon="-0.0032">
        <ele>1032</ele>
        <time>2022-07-25T11:06:11Z</time>
      </trkpt>
      <trkpt lat="42.831" lon="-0.00331">
        <ele>1033</ele>
        <time>2022-07-25T11:06:11Z</time>
      </trkpt>
      <trkpt lat="42.83112" lon="-0.00323">
        <ele>1023</ele>
        <time>2022-07-25T11:06:11Z</time>
      </trkpt>
      <trkpt lat="42.83124" lon="-0.00301">
        <ele>1009</ele>
        <time>2022-07-25T11:06:11Z</time>
      </trkpt>
      <trkpt lat="42.8313" lon="-0.00298">
        <ele>1005</ele>
        <time>2022-07-25T11:06:11Z</time>
      </trkpt>
      <trkpt lat="42.83134" lon="-0.00299">
        <ele>1002</ele>
        <time>2022-07-25T11:06:11Z</time>
      </trkpt>
      <trkpt lat="42.83137" lon="-0.00313">
        <ele>1005</ele>
        <time>2022-07-25T11:06:11Z</time>
      </trkpt>
      <trkpt lat="42.8314" lon="-0.00314">
        <ele>1003</ele>
        <time>2022-07-25T11:06:11Z</time>
      </trkpt>
      <trkpt lat="42.83148" lon="-0.00306">
        <ele>996</ele>
        <time>2022-07-25T11:06:11Z</time>
      </trkpt>
      <trkpt lat="42.83158" lon="-0.00316">
        <ele>992</ele>
        <time>2022-07-25T11:06:11Z</time>
      </trkpt>
      <trkpt lat="42.83163" lon="-0.00313">
        <ele>989</ele>
        <time>2022-07-25T11:06:11Z</time>
      </trkpt>
      <trkpt lat="42.83165" lon="-0.00304">
        <ele>985</ele>
        <time>2022-07-25T11:06:11Z</time>
      </trkpt>
      <trkpt lat="42.83176" lon="-0.00291">
        <ele>975</ele>
        <time>2022-07-25T11:06:11Z</time>
      </trkpt>
      <trkpt lat="42.83189" lon="-0.0027">
        <ele>963</ele>
        <time>2022-07-25T11:06:11Z</time>
      </trkpt>
      <trkpt lat="42.83195" lon="-0.00272">
        <ele>961</ele>
        <time>2022-07-25T11:06:11Z</time>
      </trkpt>
      <trkpt lat="42.83196" lon="-0.00284">
        <ele>964</ele>
        <time>2022-07-25T11:06:11Z</time>
      </trkpt>
      <trkpt lat="42.83199" lon="-0.00291">
        <ele>965</ele>
        <time>2022-07-25T11:06:11Z</time>
      </trkpt>
      <trkpt lat="42.83202" lon="-0.00313">
        <ele>969</ele>
        <time>2022-07-25T11:06:11Z</time>
      </trkpt>
      <trkpt lat="42.83208" lon="-0.00322">
        <ele>969</ele>
        <time>2022-07-25T11:06:11Z</time>
      </trkpt>
      <trkpt lat="42.83222" lon="-0.00333">
        <ele>967</ele>
        <time>2022-07-25T11:06:11Z</time>
      </trkpt>
      <trkpt lat="42.83254" lon="-0.00333">
        <ele>954</ele>
        <time>2022-07-25T11:06:11Z</time>
      </trkpt>
      <trkpt lat="42.83279" lon="-0.00329">
        <ele>942</ele>
        <time>2022-07-25T11:06:11Z</time>
      </trkpt>
      <trkpt lat="42.83307" lon="-0.00336">
        <ele>932</ele>
        <time>2022-07-25T11:06:11Z</time>
      </trkpt>
      <trkpt lat="42.83343" lon="-0.00349">
        <ele>920</ele>
        <time>2022-07-25T11:06:11Z</time>
      </trkpt>
      <trkpt lat="42.83366" lon="-0.00367">
        <ele>915</ele>
        <time>2022-07-25T11:06:11Z</time>
      </trkpt>
      <trkpt lat="42.83392" lon="-0.00381">
        <ele>907</ele>
        <time>2022-07-25T11:06:11Z</time>
      </trkpt>
      <trkpt lat="42.83423" lon="-0.00387">
        <ele>894</ele>
        <time>2022-07-25T11:06:11Z</time>
      </trkpt>
      <trkpt lat="42.83443" lon="-0.00386">
        <ele>885</ele>
        <time>2022-07-25T11:06:11Z</time>
      </trkpt>
      <trkpt lat="42.8345" lon="-0.00383">
        <ele>882</ele>
        <time>2022-07-25T11:06:11Z</time>
      </trkpt>
      <trkpt lat="42.83466" lon="-0.0035">
        <ele>869</ele>
        <time>2022-07-25T11:06:11Z</time>
      </trkpt>
      <trkpt lat="42.83485" lon="-0.00355">
        <ele>864</ele>
        <time>2022-07-25T11:06:11Z</time>
      </trkpt>
      <trkpt lat="42.83536" lon="-0.00363">
        <ele>852</ele>
        <time>2022-07-25T11:06:11Z</time>
      </trkpt>
      <trkpt lat="42.83552" lon="-0.00379">
        <ele>852</ele>
        <time>2022-07-25T11:06:11Z</time>
      </trkpt>
      <trkpt lat="42.8357" lon="-0.00377">
        <ele>848</ele>
        <time>2022-07-25T11:06:11Z</time>
      </trkpt>
      <trkpt lat="42.83586" lon="-0.00367">
        <ele>845</ele>
        <time>2022-07-25T11:06:11Z</time>
      </trkpt>
      <trkpt lat="42.83609" lon="-0.00367">
        <ele>843</ele>
        <time>2022-07-25T11:06:11Z</time>
      </trkpt>
      <trkpt lat="42.83638" lon="-0.00356">
        <ele>841</ele>
        <time>2022-07-25T11:06:11Z</time>
      </trkpt>
      <trkpt lat="42.83652" lon="-0.00367">
        <ele>841</ele>
        <time>2022-07-25T11:06:11Z</time>
      </trkpt>
      <trkpt lat="42.83675" lon="-0.00401">
        <ele>841</ele>
        <time>2022-07-25T11:06:11Z</time>
      </trkpt>
      <trkpt lat="42.83687" lon="-0.00412">
        <ele>840</ele>
        <time>2022-07-25T11:06:11Z</time>
      </trkpt>
      <trkpt lat="42.8371" lon="-0.00432">
        <ele>841</ele>
        <time>2022-07-25T11:06:11Z</time>
      </trkpt>
      <trkpt lat="42.8371" lon="-0.00442">
        <ele>841</ele>
        <time>2022-07-25T11:06:11Z</time>
      </trkpt>
      <trkpt lat="42.8371" lon="-0.00449">
        <ele>841</ele>
        <time>2022-07-25T11:06:11Z</time>
      </trkpt>
      <trkpt lat="42.83715" lon="-0.0046">
        <ele>841</ele>
        <time>2022-07-25T11:06:11Z</time>
      </trkpt>
      <trkpt lat="42.83716" lon="-0.00471">
        <ele>841</ele>
        <time>2022-07-25T11:06:11Z</time>
      </trkpt>
      <trkpt lat="42.83717" lon="-0.00483">
        <ele>841</ele>
        <time>2022-07-25T11:06:11Z</time>
      </trkpt>
      <trkpt lat="42.83722" lon="-0.00494">
        <ele>841</ele>
        <time>2022-07-25T11:06:11Z</time>
      </trkpt>
      <trkpt lat="42.83724" lon="-0.00504">
        <ele>841</ele>
        <time>2022-07-25T11:06:11Z</time>
      </trkpt>
      <trkpt lat="42.83733" lon="-0.00513">
        <ele>842</ele>
        <time>2022-07-25T11:06:11Z</time>
      </trkpt>
      <trkpt lat="42.83731" lon="-0.00523">
        <ele>843</ele>
        <time>2022-07-25T11:06:11Z</time>
      </trkpt>
      <trkpt lat="42.83739" lon="-0.00542">
        <ele>844</ele>
        <time>2022-07-25T11:06:11Z</time>
      </trkpt>
      <trkpt lat="42.83748" lon="-0.00552">
        <ele>843</ele>
        <time>2022-07-25T11:06:11Z</time>
      </trkpt>
      <trkpt lat="42.83793" lon="-0.00585">
        <ele>841</ele>
        <time>2022-07-25T11:06:11Z</time>
      </trkpt>
      <trkpt lat="42.8381" lon="-0.00595">
        <ele>842</ele>
        <time>2022-07-25T11:06:11Z</time>
      </trkpt>
      <trkpt lat="42.83854" lon="-0.00602">
        <ele>841</ele>
        <time>2022-07-25T11:06:11Z</time>
      </trkpt>
      <trkpt lat="42.83868" lon="-0.00612">
        <ele>841</ele>
        <time>2022-07-25T11:06:11Z</time>
      </trkpt>
      <trkpt lat="42.83898" lon="-0.00659">
        <ele>839</ele>
        <time>2022-07-25T11:06:11Z</time>
      </trkpt>
      <trkpt lat="42.83903" lon="-0.00672">
        <ele>839</ele>
        <time>2022-07-25T11:06:11Z</time>
      </trkpt>
      <trkpt lat="42.83905" lon="-0.00689">
        <ele>841</ele>
        <time>2022-07-25T11:06:11Z</time>
      </trkpt>
      <trkpt lat="42.8391" lon="-0.00702">
        <ele>842</ele>
        <time>2022-07-25T11:06:11Z</time>
      </trkpt>
      <trkpt lat="42.83917" lon="-0.00712">
        <ele>841</ele>
        <time>2022-07-25T11:06:11Z</time>
      </trkpt>
      <trkpt lat="42.83923" lon="-0.00715">
        <ele>840</ele>
        <time>2022-07-25T11:06:11Z</time>
      </trkpt>
      <trkpt lat="42.83966" lon="-0.00751">
        <ele>833</ele>
        <time>2022-07-25T11:06:11Z</time>
      </trkpt>
      <trkpt lat="42.83998" lon="-0.00765">
        <ele>829</ele>
        <time>2022-07-25T11:06:11Z</time>
      </trkpt>
      <trkpt lat="42.84004" lon="-0.00775">
        <ele>828</ele>
        <time>2022-07-25T11:06:11Z</time>
      </trkpt>
      <trkpt lat="42.84011" lon="-0.0078">
        <ele>827</ele>
        <time>2022-07-25T11:06:11Z</time>
      </trkpt>
      <trkpt lat="42.84021" lon="-0.0078">
        <ele>826</ele>
        <time>2022-07-25T11:06:11Z</time>
      </trkpt>
      <trkpt lat="42.8403" lon="-0.00782">
        <ele>827</ele>
        <time>2022-07-25T11:06:11Z</time>
      </trkpt>
      <trkpt lat="42.84063" lon="-0.00813">
        <ele>825</ele>
        <time>2022-07-25T11:06:11Z</time>
      </trkpt>
      <trkpt lat="42.84083" lon="-0.00839">
        <ele>822</ele>
        <time>2022-07-25T11:06:11Z</time>
      </trkpt>
      <trkpt lat="42.84086" lon="-0.00846">
        <ele>823</ele>
        <time>2022-07-25T11:06:11Z</time>
      </trkpt>
      <trkpt lat="42.84086" lon="-0.00854">
        <ele>823</ele>
        <time>2022-07-25T11:06:11Z</time>
      </trkpt>
      <trkpt lat="42.8408" lon="-0.00869">
        <ele>826</ele>
        <time>2022-07-25T11:06:11Z</time>
      </trkpt>
      <trkpt lat="42.84082" lon="-0.00876">
        <ele>827</ele>
        <time>2022-07-25T11:06:11Z</time>
      </trkpt>
      <trkpt lat="42.84091" lon="-0.00893">
        <ele>826</ele>
        <time>2022-07-25T11:06:11Z</time>
      </trkpt>
      <trkpt lat="42.84103" lon="-0.0091">
        <ele>825</ele>
        <time>2022-07-25T11:06:11Z</time>
      </trkpt>
      <trkpt lat="42.84119" lon="-0.00923">
        <ele>826</ele>
        <time>2022-07-25T11:06:11Z</time>
      </trkpt>
      <trkpt lat="42.84121" lon="-0.00928">
        <ele>827</ele>
        <time>2022-07-25T11:06:11Z</time>
      </trkpt>
      <trkpt lat="42.8412" lon="-0.00939">
        <ele>829</ele>
        <time>2022-07-25T11:06:11Z</time>
      </trkpt>
      <trkpt lat="42.84122" lon="-0.00949">
        <ele>831</ele>
        <time>2022-07-25T11:06:11Z</time>
      </trkpt>
      <trkpt lat="42.84131" lon="-0.00965">
        <ele>833</ele>
        <time>2022-07-25T11:06:11Z</time>
      </trkpt>
      <trkpt lat="42.84135" lon="-0.00979">
        <ele>834</ele>
        <time>2022-07-25T11:06:11Z</time>
      </trkpt>
      <trkpt lat="42.84132" lon="-0.0099">
        <ele>837</ele>
        <time>2022-07-25T11:06:11Z</time>
      </trkpt>
      <trkpt lat="42.84125" lon="-0.00995">
        <ele>839</ele>
        <time>2022-07-25T11:06:11Z</time>
      </trkpt>
      <trkpt lat="42.84122" lon="-0.01">
        <ele>841</ele>
        <time>2022-07-25T11:06:11Z</time>
      </trkpt>
      <trkpt lat="42.84125" lon="-0.01012">
        <ele>844</ele>
        <time>2022-07-25T11:06:11Z</time>
      </trkpt>
      <trkpt lat="42.84135" lon="-0.01017">
        <ele>844</ele>
        <time>2022-07-25T11:06:11Z</time>
      </trkpt>
      <trkpt lat="42.84193" lon="-0.01029">
        <ele>841</ele>
        <time>2022-07-25T11:06:11Z</time>
      </trkpt>
      <trkpt lat="42.84251" lon="-0.01041">
        <ele>848</ele>
        <time>2022-07-25T11:06:11Z</time>
      </trkpt>
      <trkpt lat="42.84256" lon="-0.01044">
        <ele>850</ele>
        <time>2022-07-25T11:06:11Z</time>
      </trkpt>
      <trkpt lat="42.84254" lon="-0.01043">
        <ele>849</ele>
        <time>2022-07-25T11:06:11Z</time>
      </trkpt>
      <trkpt lat="42.8427" lon="-0.01049">
        <ele>852</ele>
        <time>2022-07-25T11:06:11Z</time>
      </trkpt>
      <trkpt lat="42.8431" lon="-0.01054">
        <ele>858</ele>
        <time>2022-07-25T11:06:11Z</time>
      </trkpt>
      <trkpt lat="42.84353" lon="-0.0105">
        <ele>861</ele>
        <time>2022-07-25T11:06:11Z</time>
      </trkpt>
      <trkpt lat="42.84372" lon="-0.01046">
        <ele>861</ele>
        <time>2022-07-25T11:06:11Z</time>
      </trkpt>
      <trkpt lat="42.84398" lon="-0.01054">
        <ele>866</ele>
        <time>2022-07-25T11:06:11Z</time>
      </trkpt>
      <trkpt lat="42.84411" lon="-0.01054">
        <ele>866</ele>
        <time>2022-07-25T11:06:11Z</time>
      </trkpt>
      <trkpt lat="42.84429" lon="-0.01047">
        <ele>865</ele>
        <time>2022-07-25T11:06:11Z</time>
      </trkpt>
      <trkpt lat="42.84446" lon="-0.01062">
        <ele>870</ele>
        <time>2022-07-25T11:06:11Z</time>
      </trkpt>
      <trkpt lat="42.84461" lon="-0.0108">
        <ele>877</ele>
        <time>2022-07-25T11:06:11Z</time>
      </trkpt>
      <trkpt lat="42.84513" lon="-0.011">
        <ele>884</ele>
        <time>2022-07-25T11:06:11Z</time>
      </trkpt>
      <trkpt lat="42.84539" lon="-0.01101">
        <ele>885</ele>
        <time>2022-07-25T11:06:11Z</time>
      </trkpt>
      <trkpt lat="42.84563" lon="-0.01088">
        <ele>878</ele>
        <time>2022-07-25T11:06:11Z</time>
      </trkpt>
      <trkpt lat="42.84592" lon="-0.01089">
        <ele>879</ele>
        <time>2022-07-25T11:06:11Z</time>
      </trkpt>
      <trkpt lat="42.84613" lon="-0.01084">
        <ele>880</ele>
        <time>2022-07-25T11:06:11Z</time>
      </trkpt>
      <trkpt lat="42.84635" lon="-0.01063">
        <ele>875</ele>
        <time>2022-07-25T11:06:11Z</time>
      </trkpt>
      <trkpt lat="42.84656" lon="-0.01058">
        <ele>878</ele>
        <time>2022-07-25T11:06:11Z</time>
      </trkpt>
      <trkpt lat="42.84669" lon="-0.0105">
        <ele>877</ele>
        <time>2022-07-25T11:06:11Z</time>
      </trkpt>
      <trkpt lat="42.84691" lon="-0.01025">
        <ele>868</ele>
        <time>2022-07-25T11:06:11Z</time>
      </trkpt>
      <trkpt lat="42.84701" lon="-0.01024">
        <ele>870</ele>
        <time>2022-07-25T11:06:11Z</time>
      </trkpt>
      <trkpt lat="42.84734" lon="-0.01024">
        <ele>876</ele>
        <time>2022-07-25T11:06:11Z</time>
      </trkpt>
      <trkpt lat="42.84751" lon="-0.01026">
        <ele>880</ele>
        <time>2022-07-25T11:06:11Z</time>
      </trkpt>
      <trkpt lat="42.84773" lon="-0.01045">
        <ele>896</ele>
        <time>2022-07-25T11:06:11Z</time>
      </trkpt>
      <trkpt lat="42.84843" lon="-0.01066">
        <ele>917</ele>
        <time>2022-07-25T11:06:11Z</time>
      </trkpt>
      <trkpt lat="42.84861" lon="-0.01081">
        <ele>927</ele>
        <time>2022-07-25T11:06:11Z</time>
      </trkpt>
      <trkpt lat="42.84948" lon="-0.01109">
        <ele>937</ele>
        <time>2022-07-25T11:06:11Z</time>
      </trkpt>
      <trkpt lat="42.84971" lon="-0.011">
        <ele>923</ele>
        <time>2022-07-25T11:06:11Z</time>
      </trkpt>
      <trkpt lat="42.84981" lon="-0.011">
        <ele>921</ele>
        <time>2022-07-25T11:06:11Z</time>
      </trkpt>
      <trkpt lat="42.85005" lon="-0.01105">
        <ele>920</ele>
        <time>2022-07-25T11:06:11Z</time>
      </trkpt>
      <trkpt lat="42.85057" lon="-0.01109">
        <ele>916</ele>
        <time>2022-07-25T11:06:11Z</time>
      </trkpt>
      <trkpt lat="42.85079" lon="-0.01113">
        <ele>917</ele>
        <time>2022-07-25T11:06:11Z</time>
      </trkpt>
      <trkpt lat="42.85164" lon="-0.01126">
        <ele>925</ele>
        <time>2022-07-25T11:06:11Z</time>
      </trkpt>
      <trkpt lat="42.85174" lon="-0.01117">
        <ele>917</ele>
        <time>2022-07-25T11:06:11Z</time>
      </trkpt>
      <trkpt lat="42.85185" lon="-0.01113">
        <ele>913</ele>
        <time>2022-07-25T11:06:11Z</time>
      </trkpt>
      <trkpt lat="42.85239" lon="-0.01105">
        <ele>911</ele>
        <time>2022-07-25T11:06:11Z</time>
      </trkpt>
      <trkpt lat="42.85267" lon="-0.01122">
        <ele>929</ele>
        <time>2022-07-25T11:06:11Z</time>
      </trkpt>
      <trkpt lat="42.85284" lon="-0.01118">
        <ele>930</ele>
        <time>2022-07-25T11:06:11Z</time>
      </trkpt>
      <trkpt lat="42.85289" lon="-0.01115">
        <ele>929</ele>
        <time>2022-07-25T11:06:11Z</time>
      </trkpt>
      <trkpt lat="42.85304" lon="-0.01122">
        <ele>939</ele>
        <time>2022-07-25T11:06:11Z</time>
      </trkpt>
      <trkpt lat="42.85341" lon="-0.01156">
        <ele>975</ele>
        <time>2022-07-25T11:06:11Z</time>
      </trkpt>
      <trkpt lat="42.85346" lon="-0.01156">
        <ele>976</ele>
        <time>2022-07-25T11:06:11Z</time>
      </trkpt>
      <trkpt lat="42.85348" lon="-0.01149">
        <ele>971</ele>
        <time>2022-07-25T11:06:11Z</time>
      </trkpt>
      <trkpt lat="42.85373" lon="-0.01135">
        <ele>965</ele>
        <time>2022-07-25T11:06:11Z</time>
      </trkpt>
      <trkpt lat="42.85392" lon="-0.01147">
        <ele>975</ele>
        <time>2022-07-25T11:06:11Z</time>
      </trkpt>
      <trkpt lat="42.85426" lon="-0.01143">
        <ele>978</ele>
        <time>2022-07-25T11:06:11Z</time>
      </trkpt>
      <trkpt lat="42.85442" lon="-0.01147">
        <ele>979</ele>
        <time>2022-07-25T11:06:11Z</time>
      </trkpt>
      <trkpt lat="42.85445" lon="-0.01156">
        <ele>983</ele>
        <time>2022-07-25T11:06:11Z</time>
      </trkpt>
      <trkpt lat="42.85449" lon="-0.0116">
        <ele>984</ele>
        <time>2022-07-25T11:06:11Z</time>
      </trkpt>
      <trkpt lat="42.85463" lon="-0.01153">
        <ele>979</ele>
        <time>2022-07-25T11:06:11Z</time>
      </trkpt>
      <trkpt lat="42.85472" lon="-0.01156">
        <ele>979</ele>
        <time>2022-07-25T11:06:11Z</time>
      </trkpt>
      <trkpt lat="42.85477" lon="-0.0116">
        <ele>980</ele>
        <time>2022-07-25T11:06:11Z</time>
      </trkpt>
      <trkpt lat="42.855" lon="-0.01186">
        <ele>982</ele>
        <time>2022-07-25T11:06:11Z</time>
      </trkpt>
      <trkpt lat="42.85536" lon="-0.01183">
        <ele>974</ele>
        <time>2022-07-25T11:06:11Z</time>
      </trkpt>
      <trkpt lat="42.85557" lon="-0.0119">
        <ele>970</ele>
        <time>2022-07-25T11:06:11Z</time>
      </trkpt>
      <trkpt lat="42.85574" lon="-0.01188">
        <ele>966</ele>
        <time>2022-07-25T11:06:11Z</time>
      </trkpt>
      <trkpt lat="42.85604" lon="-0.01199">
        <ele>960</ele>
        <time>2022-07-25T11:06:11Z</time>
      </trkpt>
      <trkpt lat="42.85628" lon="-0.01212">
        <ele>955</ele>
        <time>2022-07-25T11:06:11Z</time>
      </trkpt>
      <trkpt lat="42.8564" lon="-0.01222">
        <ele>953</ele>
        <time>2022-07-25T11:06:11Z</time>
      </trkpt>
      <trkpt lat="42.85652" lon="-0.0123">
        <ele>951</ele>
        <time>2022-07-25T11:06:11Z</time>
      </trkpt>
      <trkpt lat="42.85683" lon="-0.01241">
        <ele>943</ele>
        <time>2022-07-25T11:06:11Z</time>
      </trkpt>
      <trkpt lat="42.85695" lon="-0.01235">
        <ele>938</ele>
        <time>2022-07-25T11:06:11Z</time>
      </trkpt>
      <trkpt lat="42.85717" lon="-0.01194">
        <ele>924</ele>
        <time>2022-07-25T11:06:11Z</time>
      </trkpt>
      <trkpt lat="42.85724" lon="-0.0121">
        <ele>923</ele>
        <time>2022-07-25T11:06:11Z</time>
      </trkpt>
      <trkpt lat="42.85736" lon="-0.01215">
        <ele>919</ele>
        <time>2022-07-25T11:06:11Z</time>
      </trkpt>
      <trkpt lat="42.85749" lon="-0.01228">
        <ele>916</ele>
        <time>2022-07-25T11:06:11Z</time>
      </trkpt>
      <trkpt lat="42.85763" lon="-0.01237">
        <ele>912</ele>
        <time>2022-07-25T11:06:11Z</time>
      </trkpt>
      <trkpt lat="42.85772" lon="-0.01237">
        <ele>909</ele>
        <time>2022-07-25T11:06:11Z</time>
      </trkpt>
      <trkpt lat="42.85787" lon="-0.01233">
        <ele>904</ele>
        <time>2022-07-25T11:06:11Z</time>
      </trkpt>
      <trkpt lat="42.85804" lon="-0.01224">
        <ele>897</ele>
        <time>2022-07-25T11:06:11Z</time>
      </trkpt>
      <trkpt lat="42.85837" lon="-0.01211">
        <ele>884</ele>
        <time>2022-07-25T11:06:11Z</time>
      </trkpt>
      <trkpt lat="42.85866" lon="-0.01194">
        <ele>874</ele>
        <time>2022-07-25T11:06:11Z</time>
      </trkpt>
      <trkpt lat="42.85891" lon="-0.01198">
        <ele>871</ele>
        <time>2022-07-25T11:06:11Z</time>
      </trkpt>
      <trkpt lat="42.85919" lon="-0.01194">
        <ele>866</ele>
        <time>2022-07-25T11:06:11Z</time>
      </trkpt>
      <trkpt lat="42.85945" lon="-0.01198">
        <ele>862</ele>
        <time>2022-07-25T11:06:11Z</time>
      </trkpt>
      <trkpt lat="42.85982" lon="-0.01211">
        <ele>857</ele>
        <time>2022-07-25T11:06:11Z</time>
      </trkpt>
      <trkpt lat="42.86013" lon="-0.01241">
        <ele>859</ele>
        <time>2022-07-25T11:06:11Z</time>
      </trkpt>
      <trkpt lat="42.86048" lon="-0.01276">
        <ele>856</ele>
        <time>2022-07-25T11:06:11Z</time>
      </trkpt>
      <trkpt lat="42.86081" lon="-0.01288">
        <ele>845</ele>
        <time>2022-07-25T11:06:11Z</time>
      </trkpt>
      <trkpt lat="42.86087" lon="-0.01283">
        <ele>841</ele>
        <time>2022-07-25T11:06:11Z</time>
      </trkpt>
      <trkpt lat="42.86088" lon="-0.01279">
        <ele>839</ele>
        <time>2022-07-25T11:06:11Z</time>
      </trkpt>
      <trkpt lat="42.86086" lon="-0.01268">
        <ele>837</ele>
        <time>2022-07-25T11:06:11Z</time>
      </trkpt>
      <trkpt lat="42.86077" lon="-0.01254">
        <ele>837</ele>
        <time>2022-07-25T11:06:11Z</time>
      </trkpt>
      <trkpt lat="42.86059" lon="-0.01241">
        <ele>840</ele>
        <time>2022-07-25T11:06:11Z</time>
      </trkpt>
      <trkpt lat="42.8602" lon="-0.01203">
        <ele>844</ele>
        <time>2022-07-25T11:06:11Z</time>
      </trkpt>
      <trkpt lat="42.86005" lon="-0.01181">
        <ele>842</ele>
        <time>2022-07-25T11:06:11Z</time>
      </trkpt>
      <trkpt lat="42.86042" lon="-0.01166">
        <ele>825</ele>
        <time>2022-07-25T11:06:11Z</time>
      </trkpt>
      <trkpt lat="42.86057" lon="-0.01173">
        <ele>822</ele>
        <time>2022-07-25T11:06:11Z</time>
      </trkpt>
      <trkpt lat="42.86064" lon="-0.01174">
        <ele>820</ele>
        <time>2022-07-25T11:06:11Z</time>
      </trkpt>
      <trkpt lat="42.86088" lon="-0.01164">
        <ele>809</ele>
        <time>2022-07-25T11:06:11Z</time>
      </trkpt>
      <trkpt lat="42.86104" lon="-0.01161">
        <ele>801</ele>
        <time>2022-07-25T11:06:11Z</time>
      </trkpt>
      <trkpt lat="42.86128" lon="-0.01169">
        <ele>793</ele>
        <time>2022-07-25T11:06:11Z</time>
      </trkpt>
      <trkpt lat="42.86145" lon="-0.01187">
        <ele>790</ele>
        <time>2022-07-25T11:06:11Z</time>
      </trkpt>
      <trkpt lat="42.86149" lon="-0.01178">
        <ele>785</ele>
        <time>2022-07-25T11:06:11Z</time>
      </trkpt>
      <trkpt lat="42.86143" lon="-0.01156">
        <ele>781</ele>
        <time>2022-07-25T11:06:11Z</time>
      </trkpt>
      <trkpt lat="42.86144" lon="-0.01152">
        <ele>779</ele>
        <time>2022-07-25T11:06:11Z</time>
      </trkpt>
      <trkpt lat="42.86158" lon="-0.01164">
        <ele>777</ele>
        <time>2022-07-25T11:06:11Z</time>
      </trkpt>
      <trkpt lat="42.8617" lon="-0.01162">
        <ele>771</ele>
        <time>2022-07-25T11:06:11Z</time>
      </trkpt>
      <trkpt lat="42.86177" lon="-0.0116">
        <ele>767</ele>
        <time>2022-07-25T11:06:11Z</time>
      </trkpt>
      <trkpt lat="42.86179" lon="-0.0113">
        <ele>757</ele>
        <time>2022-07-25T11:06:11Z</time>
      </trkpt>
      <trkpt lat="42.86201" lon="-0.0117">
        <ele>760</ele>
        <time>2022-07-25T11:06:11Z</time>
      </trkpt>
      <trkpt lat="42.86204" lon="-0.0117">
        <ele>759</ele>
        <time>2022-07-25T11:06:11Z</time>
      </trkpt>
      <trkpt lat="42.86205" lon="-0.01156">
        <ele>755</ele>
        <time>2022-07-25T11:06:11Z</time>
      </trkpt>
      <trkpt lat="42.86208" lon="-0.01156">
        <ele>754</ele>
        <time>2022-07-25T11:06:11Z</time>
      </trkpt>
      <trkpt lat="42.8621" lon="-0.01177">
        <ele>758</ele>
        <time>2022-07-25T11:06:11Z</time>
      </trkpt>
      <trkpt lat="42.86219" lon="-0.01169">
        <ele>752</ele>
        <time>2022-07-25T11:06:11Z</time>
      </trkpt>
      <trkpt lat="42.86249" lon="-0.01194">
        <ele>744</ele>
        <time>2022-07-25T11:06:11Z</time>
      </trkpt>
      <trkpt lat="42.86246" lon="-0.01177">
        <ele>742</ele>
        <time>2022-07-25T11:06:11Z</time>
      </trkpt>
      <trkpt lat="42.86236" lon="-0.0116">
        <ele>743</ele>
        <time>2022-07-25T11:06:11Z</time>
      </trkpt>
      <trkpt lat="42.86251" lon="-0.01166">
        <ele>738</ele>
        <time>2022-07-25T11:06:11Z</time>
      </trkpt>
      <trkpt lat="42.86251" lon="-0.01161">
        <ele>738</ele>
        <time>2022-07-25T11:06:11Z</time>
      </trkpt>
      <trkpt lat="42.86238" lon="-0.01127">
        <ele>738</ele>
        <time>2022-07-25T11:06:11Z</time>
      </trkpt>
      <trkpt lat="42.86227" lon="-0.01068">
        <ele>732</ele>
        <time>2022-07-25T11:06:11Z</time>
      </trkpt>
      <trkpt lat="42.86182" lon="-0.00978">
        <ele>729</ele>
        <time>2022-07-25T11:06:11Z</time>
      </trkpt>
      <trkpt lat="42.86185" lon="-0.00974">
        <ele>728</ele>
        <time>2022-07-25T11:06:11Z</time>
      </trkpt>
      <trkpt lat="42.86209" lon="-0.00987">
        <ele>726</ele>
        <time>2022-07-25T11:06:11Z</time>
      </trkpt>
      <trkpt lat="42.86216" lon="-0.00987">
        <ele>725</ele>
        <time>2022-07-25T11:06:11Z</time>
      </trkpt>
      <trkpt lat="42.86223" lon="-0.00991">
        <ele>725</ele>
        <time>2022-07-25T11:06:11Z</time>
      </trkpt>
      <trkpt lat="42.86228" lon="-0.01">
        <ele>725</ele>
        <time>2022-07-25T11:06:11Z</time>
      </trkpt>
      <trkpt lat="42.8623" lon="-0.00995">
        <ele>724</ele>
        <time>2022-07-25T11:06:11Z</time>
      </trkpt>
      <trkpt lat="42.8623" lon="-0.00974">
        <ele>723</ele>
        <time>2022-07-25T11:06:11Z</time>
      </trkpt>
      <trkpt lat="42.86243" lon="-0.00962">
        <ele>721</ele>
        <time>2022-07-25T11:06:11Z</time>
      </trkpt>
      <trkpt lat="42.86292" lon="-0.01041">
        <ele>720</ele>
        <time>2022-07-25T11:06:11Z</time>
      </trkpt>
      <trkpt lat="42.86295" lon="-0.0105">
        <ele>721</ele>
        <time>2022-07-25T11:06:11Z</time>
      </trkpt>
      <trkpt lat="42.86305" lon="-0.01088">
        <ele>721</ele>
        <time>2022-07-25T11:06:11Z</time>
      </trkpt>
      <trkpt lat="42.86309" lon="-0.01096">
        <ele>721</ele>
        <time>2022-07-25T11:06:11Z</time>
      </trkpt>
      <trkpt lat="42.86329" lon="-0.01108">
        <ele>719</ele>
        <time>2022-07-25T11:06:11Z</time>
      </trkpt>
      <trkpt lat="42.86344" lon="-0.01114">
        <ele>718</ele>
        <time>2022-07-25T11:06:11Z</time>
      </trkpt>
      <trkpt lat="42.86374" lon="-0.01145">
        <ele>717</ele>
        <time>2022-07-25T11:06:11Z</time>
      </trkpt>
      <trkpt lat="42.8638" lon="-0.01147">
        <ele>717</ele>
        <time>2022-07-25T11:06:11Z</time>
      </trkpt>
      <trkpt lat="42.86402" lon="-0.01146">
        <ele>715</ele>
        <time>2022-07-25T11:06:11Z</time>
      </trkpt>
      <trkpt lat="42.864" lon="-0.01146">
        <ele>715</ele>
        <time>2022-07-25T11:06:11Z</time>
      </trkpt>
      <trkpt lat="42.86421" lon="-0.01145">
        <ele>714</ele>
        <time>2022-07-25T11:06:11Z</time>
      </trkpt>
      <trkpt lat="42.86482" lon="-0.01162">
        <ele>711</ele>
        <time>2022-07-25T11:06:11Z</time>
      </trkpt>
      <trkpt lat="42.86493" lon="-0.0117">
        <ele>711</ele>
        <time>2022-07-25T11:06:11Z</time>
      </trkpt>
      <trkpt lat="42.86511" lon="-0.01191">
        <ele>712</ele>
        <time>2022-07-25T11:06:11Z</time>
      </trkpt>
      <trkpt lat="42.86518" lon="-0.01196">
        <ele>712</ele>
        <time>2022-07-25T11:06:11Z</time>
      </trkpt>
      <trkpt lat="42.86535" lon="-0.01199">
        <ele>711</ele>
        <time>2022-07-25T11:06:11Z</time>
      </trkpt>
      <trkpt lat="42.86541" lon="-0.01198">
        <ele>711</ele>
        <time>2022-07-25T11:06:11Z</time>
      </trkpt>
      <trkpt lat="42.86549" lon="-0.01194">
        <ele>711</ele>
        <time>2022-07-25T11:06:11Z</time>
      </trkpt>
      <trkpt lat="42.86552" lon="-0.01187">
        <ele>710</ele>
        <time>2022-07-25T11:06:11Z</time>
      </trkpt>
      <trkpt lat="42.86556" lon="-0.01164">
        <ele>709</ele>
        <time>2022-07-25T11:06:11Z</time>
      </trkpt>
      <trkpt lat="42.86567" lon="-0.01148">
        <ele>711</ele>
        <time>2022-07-25T11:06:11Z</time>
      </trkpt>
      <trkpt lat="42.86574" lon="-0.01147">
        <ele>711</ele>
        <time>2022-07-25T11:06:11Z</time>
      </trkpt>
      <trkpt lat="42.8659" lon="-0.01141">
        <ele>712</ele>
        <time>2022-07-25T11:06:11Z</time>
      </trkpt>
      <trkpt lat="42.86592" lon="-0.01131">
        <ele>713</ele>
        <time>2022-07-25T11:06:11Z</time>
      </trkpt>
      <trkpt lat="42.86627" lon="-0.01126">
        <ele>711</ele>
        <time>2022-07-25T11:06:11Z</time>
      </trkpt>
      <trkpt lat="42.86665" lon="-0.01114">
        <ele>710</ele>
        <time>2022-07-25T11:06:11Z</time>
      </trkpt>
      <trkpt lat="42.86698" lon="-0.01094">
        <ele>709</ele>
        <time>2022-07-25T11:06:11Z</time>
      </trkpt>
      <trkpt lat="42.86712" lon="-0.01089">
        <ele>709</ele>
        <time>2022-07-25T11:06:11Z</time>
      </trkpt>
      <trkpt lat="42.86725" lon="-0.01093">
        <ele>708</ele>
        <time>2022-07-25T11:06:11Z</time>
      </trkpt>
      <trkpt lat="42.86745" lon="-0.01114">
        <ele>704</ele>
        <time>2022-07-25T11:06:11Z</time>
      </trkpt>
      <trkpt lat="42.8675" lon="-0.01116">
        <ele>704</ele>
        <time>2022-07-25T11:06:11Z</time>
      </trkpt>
      <trkpt lat="42.86752" lon="-0.01076">
        <ele>708</ele>
        <time>2022-07-25T11:06:11Z</time>
      </trkpt>
      <trkpt lat="42.86755" lon="-0.01062">
        <ele>711</ele>
        <time>2022-07-25T11:06:11Z</time>
      </trkpt>
      <trkpt lat="42.86777" lon="-0.01005">
        <ele>724</ele>
        <time>2022-07-25T11:06:11Z</time>
      </trkpt>
      <trkpt lat="42.86781" lon="-0.00988">
        <ele>728</ele>
        <time>2022-07-25T11:06:11Z</time>
      </trkpt>
      <trkpt lat="42.86833" lon="-0.00981">
        <ele>725</ele>
        <time>2022-07-25T11:06:11Z</time>
      </trkpt>
      <trkpt lat="42.86885" lon="-0.00974">
        <ele>715</ele>
        <time>2022-07-25T11:06:11Z</time>
      </trkpt>
      <trkpt lat="42.86915" lon="-0.00973">
        <ele>707</ele>
        <time>2022-07-25T11:06:11Z</time>
      </trkpt>
      <trkpt lat="42.86924" lon="-0.00966">
        <ele>705</ele>
        <time>2022-07-25T11:06:11Z</time>
      </trkpt>
      <trkpt lat="42.86938" lon="-0.00953">
        <ele>703</ele>
        <time>2022-07-25T11:06:11Z</time>
      </trkpt>
      <trkpt lat="42.8698" lon="-0.00887">
        <ele>698</ele>
        <time>2022-07-25T11:06:11Z</time>
      </trkpt>
      <trkpt lat="42.87021" lon="-0.0082">
        <ele>696</ele>
        <time>2022-07-25T11:06:11Z</time>
      </trkpt>
      <trkpt lat="42.87063" lon="-0.00754">
        <ele>696</ele>
        <time>2022-07-25T11:06:11Z</time>
      </trkpt>
      <trkpt lat="42.87063" lon="-0.00753">
        <ele>696</ele>
        <time>2022-07-25T11:06:11Z</time>
      </trkpt>
      <trkpt lat="42.87063" lon="-0.00753">
        <ele>696</ele>
        <time>2022-07-25T11:06:11Z</time>
      </trkpt>
      <trkpt lat="42.8705" lon="-0.00774">
        <ele>696</ele>
        <time>2022-07-25T11:06:11Z</time>
      </trkpt>
      <trkpt lat="42.87027" lon="-0.00753">
        <ele>697</ele>
        <time>2022-07-25T11:06:11Z</time>
      </trkpt>
    </trkseg>
  </trk>
</gpx>